FW5354 Weather Reports


Display with metric or nautical units.
time (UTC)temp
F
wind
direction
speed
MPH
gust
MPH
rain 1hr
in
rain 24hr
in
rain mn
in
humidity
%
barometer
mb
20260901211504 91 169 0.0 0.0 0.00 0.00 0.00 61 1010.6
20260901204601 90 160 0.0 0.0 0.00 0.00 0.00 61 1010.5
20260901203057 89 171 0.0 0.0 0.00 0.00 0.00 62 1010.8
20260901201553 89 176 0.0 0.0 0.00 0.00 0.00 64 1011.3
20260901200101 90 167 0.0 0.0 0.00 0.00 0.00 62 1011.8
20260901194603 90 164 0.0 0.0 0.00 0.00 0.00 62 1011.9
20260901193052 90 172 0.0 0.0 0.00 0.00 0.00 58 1011.9
20260901191548 91 170 0.0 0.0 0.00 0.00 0.00 61 1011.9
20260901184543 90 170 0.0 0.0 0.00 0.00 0.00 59 1012.1
20260901183044 91 150 0.0 0.0 0.00 0.00 0.00 61 1012.2
20260901181549 90 143 0.0 0.0 0.00 0.00 0.00 61 1012.5
20260901180044 90 167 0.0 0.0 0.00 0.00 0.00 62 1012.5
20260901174543 89 169 0.0 0.0 0.00 0.00 0.00 65 1012.9
20260901173102 89 174 0.0 0.0 0.00 0.00 0.00 65 1013.3
20260901171542 89 173 0.0 0.0 0.00 0.00 0.00 65 1013.6
20260901170040 89 177 0.0 0.0 0.00 0.00 0.00 65 1013.9
20260901164540 89 176 0.0 0.0 0.00 0.00 0.00 67 1013.7
20260901163039 88 196 0.0 0.0 0.00 0.00 0.00 67 1013.7
20260901161539 88 201 0.0 0.0 0.00 0.00 0.00 67 1013.7
20260901160042 89 172 0.0 0.0 0.00 0.00 0.00 69 1013.6
20260901154540 89 179 0.0 0.0 0.00 0.00 0.00 67 1013.6
20260901153040 87 217 0.0 0.0 0.00 0.00 0.00 71 1013.6
20260901151537 86 209 0.0 1.0 0.00 0.00 0.00 72 1013.5
20260901150038 85 210 0.0 0.0 0.00 0.00 0.00 72 1013.7
20260901144540 84 210 0.0 0.0 0.00 0.00 0.00 73 1013.9
20260901143041 83 213 0.0 0.0 0.00 0.00 0.00 71 1013.7
20260901141545 82 210 0.0 0.0 0.00 0.00 0.00 67 1013.8
20260901140038 81 210 0.0 0.0 0.00 0.00 0.00 63 1013.9
20260901134538 80 213 0.0 0.0 0.00 0.00 0.00 61 1014.0
20260901133040 80 208 0.0 0.0 0.00 0.00 0.00 60 1013.7
20260901131534 80 210 0.0 0.0 0.00 0.00 0.00 57 1013.6
20260901130030 79 200 0.0 0.0 0.00 0.00 0.00 55 1013.5
20260901124529 0 0.0 0.0 0.00 0.00 0.00 1013.2
20260901123029 0 0.0 0.0 0.00 0.00 0.00 1013.0
20260901121528 0 0.0 0.0 0.00 0.00 0.00 1012.9
20260901120029 0 0.0 0.0 0.00 0.00 0.00 1012.6
20260901114528 0 0.0 0.0 0.00 0.00 0.00 1012.6
20260901113027 0 0.0 0.0 0.00 0.00 0.00 1012.7
20260901111527 0 0.0 0.0 0.00 0.00 0.00 1012.7
20260901110037 0 0.0 0.0 0.00 0.00 0.00 1012.5
20260901104526 0 0.0 0.0 0.00 0.00 0.00 1012.5
20260901103026 0 0.0 0.0 0.00 0.00 0.00 1012.3
20260901101525 0 0.0 0.0 0.00 0.00 0.00 1012.5
20260901100026 0 0.0 0.0 0.00 0.00 0.00 1012.3
20260901094528 0 0.0 0.0 0.00 0.00 0.00 1012.5
20260901093026 0 0.0 0.0 0.00 0.00 0.00 1012.5
20260901091530 0 0.0 0.0 0.00 0.00 0.00 1012.5
20260901090023 0 0.0 0.0 0.00 0.00 0.00 1012.5
20260901084517 0 0.0 0.0 0.00 0.00 0.00 1012.5
20260901083014 0 0.0 0.0 0.00 0.00 0.00 1012.7
20260901081512 0 0.0 0.0 0.00 0.00 0.00 1012.8
20260901080006 0 0.0 0.0 0.00 0.00 0.00 1012.9
20260901074502 0 0.0 0.0 0.00 0.00 0.00 1013.0
20260901073058 0 0.0 0.0 0.00 0.00 0.00 1012.9
20260901071558 0 0.0 0.0 0.00 0.00 0.00 1012.9
20260901070059 0 0.0 0.0 0.00 0.00 0.00 1012.9
20260901064548 0 0.0 0.0 0.00 0.00 0.00 1012.9
20260901063044 0 0.0 0.0 0.00 0.00 0.00 1013.0
20260901061540 0 0.0 0.0 0.00 0.00 0.00 1013.0
20260901060035 82 195 0.0 0.0 0.00 0.00 0.00 73 1013.1
20260901054533 82 199 0.0 0.0 0.00 0.00 0.00 73 1012.9
20260901053036 83 198 0.0 0.0 0.00 0.00 0.00 73 1012.8
20260901051533 83 199 0.0 0.0 0.00 0.00 0.00 73 1012.8
20260901050032 83 198 0.0 0.0 0.00 0.00 0.00 73 1012.7
20260901044531 84 199 0.0 0.0 0.00 0.00 0.00 73 1012.5
20260901043029 84 199 0.0 0.0 0.00 0.00 0.00 73 1012.5
20260901041527 84 199 0.0 0.0 0.00 0.00 0.00 72 1012.5
20260901040027 84 199 0.0 0.0 0.00 0.00 0.00 72 1012.5
20260901034523 85 199 0.0 0.0 0.00 0.00 0.00 71 1012.3
20260901033036 85 199 0.0 0.0 0.00 0.00 0.00 71 1012.2
20260901031520 85 199 0.0 0.0 0.00 0.00 0.00 70 1012.0
20260901030022 85 199 0.0 0.0 0.00 0.00 0.00 70 1011.8
20260901024520 85 199 0.0 0.0 0.00 0.00 0.00 69 1011.8
20260901023015 86 198 0.0 0.0 0.00 0.00 0.00 68 1011.5
20260901021517 87 199 0.0 0.0 0.00 0.00 0.00 67 1011.2
20260901020012 87 199 0.0 0.0 0.00 0.00 0.00 67 1011.3
20260901014510 88 199 0.0 0.0 0.00 0.00 0.00 66 1011.1
20260901013008 88 198 0.0 0.0 0.00 0.00 0.00 66 1011.0
20260901011506 88 198 0.0 0.0 0.00 0.00 0.00 65 1011.0
20260901010004 89 198 0.0 0.0 0.00 0.00 0.00 64 1010.8
20260901004502 89 203 0.0 0.0 0.00 0.00 0.00 62 1010.9
20260901003102 90 203 0.0 0.0 0.00 0.00 0.00 60 1011.1
20260901001600 91 203 0.0 0.0 0.00 0.00 0.00 60 1011.0
20260901000100 91 207 0.0 0.0 0.00 0.00 0.00 58 1011.0
20260831234602 92 213 0.0 0.0 0.00 0.00 0.00 56 1011.1
20260831233056 93 216 0.0 0.0 0.00 0.00 0.00 52 1011.1
20260831231556 93 216 0.0 0.0 0.00 0.00 0.00 50 1011.0
20260831230055 93 151 0.0 0.0 0.00 0.00 0.00 50 1011.0
20260831224550 93 146 0.0 0.0 0.00 0.00 0.00 51 1011.0
20260831223050 93 144 0.0 0.0 0.00 0.00 0.00 52 1011.1
20260831221548 93 144 0.0 0.0 0.00 0.00 0.00 53 1011.1
20260831220056 92 150 0.0 0.0 0.00 0.00 0.00 58 1011.1
20260831214549 92 146 0.0 0.0 0.00 0.00 0.00 59 1011.3
20260831213045 93 143 0.0 0.0 0.00 0.00 0.00 59 1011.5